Change the Weather History Date:

Monday, March 18, 2013

  Actual Average Record
Temperature  
Mean Temperature 37 °F 39 °F  
Max Temperature 46 °F 47 °F 75 °F (1903)
Min Temperature 27 °F 31 °F 0 °F (1877)
Degree Days  
Heating Degree Days 28 26  
Month to date heating degree days 561 518  
Since 1 July heating degree days 4740 4735  
Cooling Degree Days 0 0  
Month to date cooling degree days 0 0  
Year to date cooling degree days 0 0  
Moisture  
Dew Point 32 °F    
Average Humidity 78    
Maximum Humidity 93    
Minimum Humidity 63    
Precipitation  
Precipitation 0.23 in 0.09 in 1.36 in (1977)
Month to date precipitation 1.62 1.58  
Year to date precipitation 6.09 6.64  
Snow  
Snow T in 0.40 in - ()
Month to date snowfall 3.6 8.2  
Since 1 July snowfall 44.3 60.4  
Snow Depth 0.00 in    
Sea Level Pressure  
Sea Level Pressure 29.80 in    
Wind  
Wind Speed 15 mph (SSE)    
Max Wind Speed 26 mph    
Max Gust Speed 31 mph    
Visibility 8 miles    
Events Rain , Snow    
T = Trace of Precipitation, MM = Missing Value Source: NWS Daily Summary

Daily Weather History Graph

Daily Weather History Graph

Search for Another Location

Airport or City:

Trip Planner

Search our weather history database for the weather conditions in past years. The results will help you decide how hot, cold, wet, or windy it might be!

Date:

Astronomy

Mar. 18, 2013 Rise Set
Actual Time 7:33 AM EDT 7:37 PM EDT
Civil Twilight 7:06 AM EDT 8:05 PM EDT
Nautical Twilight 6:33 AM EDT 8:37 PM EDT
Astronomical Twilight 6:01 AM EDT 9:10 PM EDT
Moon 11:28 AM EDT (3/18) 1:39 AM EDT (3/18)
Length of Visible Light 12h 59m
Length of Day
12h 03m
Waxing Crescent, 40% of the Moon is Illuminated
Mar 18
Waxing Crescent
Mar 19
First Quarter
Mar 27
Full
Apr 3
Last Quarter
Apr 10
New

Hourly Weather History & Observations

Time (EDT) Temp. Windchill Dew Point Humidity Pressure Visibility Wind Dir Wind Speed Gust Speed Precip Events Conditions
12:51 AM 27.0 °F 17.3 °F 17.1 °F 66% 30.19 in 10.0 mi East 10.4 mph - N/A   Overcast
1:51 AM 27.0 °F 19.5 °F 17.1 °F 66% 30.17 in 10.0 mi East 6.9 mph - N/A   Overcast
2:51 AM 27.0 °F 19.5 °F 18.0 °F 69% 30.15 in 10.0 mi East 6.9 mph - N/A   Overcast
3:51 AM 28.9 °F 20.4 °F 19.0 °F 67% 30.12 in 10.0 mi East 9.2 mph - N/A   Overcast
4:31 AM 28.9 °F 18.2 °F 19.0 °F 67% 30.05 in 10.0 mi East 13.8 mph - N/A   Overcast
4:51 AM 30.0 °F 21.7 °F 19.0 °F 64% 30.06 in 10.0 mi East 9.2 mph - N/A   Overcast
5:51 AM 30.9 °F 20.7 °F 21.0 °F 67% 30.02 in 10.0 mi ESE 13.8 mph - N/A   Overcast
6:35 AM 30.9 °F 21.2 °F 21.0 °F 67% 29.97 in 9.0 mi ESE 12.7 mph 23.0 mph 0.00 in Snow Light Snow
6:43 AM 32.0 °F 21.6 °F 21.0 °F 64% 29.97 in 9.0 mi ESE 15.0 mph - 0.00 in Snow Light Snow
6:51 AM 32.0 °F 22.1 °F 21.9 °F 66% 29.99 in 9.0 mi ESE 13.8 mph 21.9 mph 0.00 in Snow Light Snow
7:31 AM 32.0 °F 21.6 °F 24.1 °F 73% 29.94 in 9.0 mi ESE 15.0 mph - 0.00 in Rain Light Freezing Rain
7:51 AM 32.0 °F 20.8 °F 25.0 °F 75% 29.96 in 10.0 mi ESE 17.3 mph 23.0 mph 0.01 in Rain Light Freezing Rain
8:51 AM 33.1 °F 23.4 °F 28.9 °F 85% 29.90 in 5.0 mi ESE 13.8 mph 24.2 mph 0.08 in Rain Light Rain
9:39 AM 34.0 °F 24.6 °F 30.9 °F 89% 29.87 in 5.0 mi ESE 13.8 mph - 0.05 in Rain Light Rain
9:51 AM 34.0 °F 23.8 °F 30.9 °F 89% 29.88 in 6.0 mi ESE 16.1 mph - 0.05 in Rain Light Rain
10:51 AM 35.1 °F 25.5 °F 32.0 °F 89% 29.83 in 10.0 mi ESE 15.0 mph 24.2 mph 0.01 in   Overcast
11:51 AM 36.0 °F 26.0 °F 32.0 °F 86% 29.85 in 10.0 mi SE 17.3 mph 24.2 mph N/A   Overcast
12:51 PM 36.0 °F 26.0 °F 32.0 °F 86% 29.81 in 10.0 mi SE 17.3 mph - N/A   Overcast
1:51 PM 36.0 °F 26.0 °F 33.1 °F 89% 29.78 in 10.0 mi SE 17.3 mph 26.5 mph N/A   Overcast
2:51 PM 36.0 °F 25.6 °F 34.0 °F 93% 29.71 in 8.0 mi SE 18.4 mph - 0.00 in Rain Light Rain
3:32 PM 37.0 °F 28.1 °F 35.1 °F 93% 29.66 in 2.5 mi SE 15.0 mph 25.3 mph 0.00 in Rain Light Rain
3:51 PM 37.0 °F 28.1 °F 35.1 °F 93% 29.65 in 5.0 mi SSE 15.0 mph - 0.00 in Rain Light Rain
4:10 PM 37.9 °F 28.9 °F 36.0 °F 93% 29.62 in 10.0 mi SE 16.1 mph - 0.01 in   Overcast
4:51 PM 39.0 °F 29.6 °F 37.0 °F 93% 29.65 in 6.0 mi SSE 18.4 mph 28.8 mph 0.01 in Rain Light Rain
5:27 PM 39.9 °F 30.5 °F 37.9 °F 93% 29.61 in 10.0 mi SSE 19.6 mph 23.0 mph 0.01 in   Overcast
5:51 PM 39.9 °F 31.1 °F 37.9 °F 93% 29.62 in 5.0 mi South 17.3 mph - 0.01 in   Light Drizzle
6:03 PM 39.9 °F 30.8 °F 39.0 °F 97% 29.60 in 5.0 mi SSE 18.4 mph - 0.00 in   Light Drizzle
6:41 PM 41.0 °F 31.6 °F 39.9 °F 96% 29.58 in 3.0 mi SSE 20.7 mph 26.5 mph 0.00 in Rain Light Rain
6:44 PM 41.0 °F 31.6 °F 39.9 °F 96% 29.58 in 3.0 mi SSE 20.7 mph 26.5 mph 0.00 in Rain Light Rain
6:51 PM 41.0 °F 31.9 °F 39.9 °F 96% 29.60 in 4.0 mi SSE 19.6 mph - 0.00 in Rain Light Rain
7:51 PM 44.1 °F 37.4 °F 42.1 °F 93% 29.62 in 5.0 mi South 13.8 mph - 0.01 in Rain Light Rain
8:09 PM 45.0 °F 39.3 °F 43.0 °F 93% 29.60 in 6.0 mi South 11.5 mph 19.6 mph 0.00 in Rain Light Rain
8:20 PM 45.0 °F 38.2 °F 44.1 °F 97% 29.61 in 7.0 mi South 15.0 mph 21.9 mph 0.00 in Rain Light Rain
8:44 PM 46.0 °F 40.2 °F 44.1 °F 93% 29.62 in 5.0 mi South 12.7 mph - 0.02 in Rain Light Rain
8:51 PM 46.0 °F 41.0 °F 44.1 °F 93% 29.65 in 5.0 mi WSW 10.4 mph - 0.02 in Rain Light Rain
9:00 PM 45.0 °F 37.6 °F 44.1 °F 97% 29.63 in 4.0 mi WSW 17.3 mph 23.0 mph 0.01 in Rain Light Rain
9:51 PM 42.1 °F 34.9 °F 39.9 °F 92% 29.67 in 7.0 mi West 13.8 mph - 0.03 in Rain Light Rain
10:51 PM 41.0 °F 32.5 °F 39.9 °F 96% 29.68 in 6.0 mi WSW 17.3 mph 26.5 mph 0.00 in   Light Drizzle
11:25 PM 41.0 °F 32.2 °F 37.9 °F 89% 29.68 in 10.0 mi WSW 18.4 mph 26.5 mph 0.00 in   Overcast
11:27 PM 41.0 °F 32.5 °F 37.9 °F 89% 29.68 in 10.0 mi WSW 17.3 mph 26.5 mph 0.00 in   Overcast
11:32 PM 41.0 °F 32.5 °F 37.9 °F 89% 29.68 in 10.0 mi WSW 17.3 mph 25.3 mph 0.00 in   Overcast
11:51 PM 39.9 °F 30.5 °F 37.9 °F 93% 29.71 in 8.0 mi WSW 19.6 mph - 0.00 in Rain Light Rain